TimeCEST,TemperatureF,Dew PointF,Humidity,Sea Level PressureIn,VisibilityMPH,Wind Direction,Wind SpeedMPH,Gust SpeedMPH,PrecipitationIn,Events,Conditions,WindDirDegrees,DateUTC
12:25 AM,51.8,50.0,94,30.01,6.2,SW,3.5,-,N/A,,Partly Cloudy,230,2013-07-01 22:25:00
12:55 AM,55.4,51.8,88,30.01,6.2,SSW,3.5,-,N/A,,Unknown,210,2013-07-01 22:55:00
1:25 AM,55.4,51.8,88,30.01,6.2,Variable,2.3,-,N/A,,Scattered Clouds,0,2013-07-01 23:25:00
1:55 AM,55.4,53.6,94,30.01,6.2,WSW,3.5,-,N/A,,Scattered Clouds,250,2013-07-01 23:55:00
2:00 AM,56,53,88,30.01,9,WSW,4.5,,,,Partly Cloudy,250,2013-07-02 00:00:00
2:25 AM,55.4,53.6,94,30.01,6.2,Variable,1.2,-,N/A,,Unknown,0,2013-07-02 00:25:00
2:55 AM,55.4,53.6,94,29.98,6.2,SW,2.3,-,N/A,,Unknown,230,2013-07-02 00:55:00
3:25 AM,53.6,51.8,94,29.98,6.2,WSW,4.6,-,N/A,,Mostly Cloudy,250,2013-07-02 01:25:00
3:55 AM,55.4,53.6,94,29.98,6.2,SSW,2.3,-,N/A,,Mostly Cloudy,210,2013-07-02 01:55:00
4:25 AM,55.4,53.6,94,29.98,5.6,Variable,1.2,-,N/A,,Partly Cloudy,0,2013-07-02 02:25:00
4:55 AM,53.6,51.8,94,29.98,3.1,East,1.2,-,N/A,,Mist,100,2013-07-02 02:55:00
5:00 AM,53,53,99,29.99,1,East,2.2,,,,Mist,80,2013-07-02 03:00:00
5:25 AM,51.8,51.8,100,29.98,0.4,Variable,1.2,-,N/A,Fog,Fog,0,2013-07-02 03:25:00
5:55 AM,51.8,51.8,100,29.98,3.7,SE,2.3,-,N/A,,Unknown,140,2013-07-02 03:55:00
6:25 AM,51.8,51.8,100,29.98,6.2,Variable,1.2,-,N/A,,Unknown,0,2013-07-02 04:25:00
6:55 AM,53.6,53.6,100,29.98,6.2,South,3.5,-,N/A,,Partly Cloudy,190,2013-07-02 04:55:00
7:25 AM,57.2,55.4,94,29.98,6.2,South,4.6,-,N/A,,Unknown,190,2013-07-02 05:25:00
7:55 AM,59.0,55.4,88,29.98,5.0,SSW,6.9,-,N/A,,Unknown,200,2013-07-02 05:55:00
8:00 AM,59,55,81,29.99,9,South,6.7,,,,Partly Cloudy,180,2013-07-02 06:00:00
8:25 AM,59.0,55.4,88,29.98,6.2,SSW,6.9,-,N/A,,Partly Cloudy,200,2013-07-02 06:25:00
8:55 AM,60.8,53.6,77,29.98,6.2,South,6.9,-,N/A,,Unknown,170,2013-07-02 06:55:00
9:25 AM,60.8,51.8,72,29.98,6.2,South,6.9,-,N/A,,Unknown,180,2013-07-02 07:25:00
9:55 AM,62.6,53.6,72,29.98,6.2,South,6.9,-,N/A,,Unknown,180,2013-07-02 07:55:00
10:25 AM,64.4,53.6,68,29.98,6.2,South,6.9,-,N/A,,Unknown,190,2013-07-02 08:25:00
10:55 AM,64.4,53.6,68,29.95,6.2,SSW,6.9,-,N/A,,Unknown,200,2013-07-02 08:55:00
11:00 AM,65,53,56,29.97,12,South,6.7,,,,,190,2013-07-02 09:00:00
11:25 AM,66.2,51.8,60,29.95,6.2,South,6.9,-,N/A,,Unknown,180,2013-07-02 09:25:00
11:55 AM,66.2,51.8,60,29.95,6.2,South,6.9,-,N/A,,Unknown,170,2013-07-02 09:55:00
12:25 PM,68.0,51.8,56,29.95,6.2,SSE,5.8,-,N/A,,Partly Cloudy,150,2013-07-02 10:25:00
12:55 PM,69.8,48.2,46,29.95,6.2,South,9.2,-,N/A,,Unknown,180,2013-07-02 10:55:00
1:25 PM,68.0,51.8,56,29.95,6.2,South,10.4,-,N/A,,Partly Cloudy,180,2013-07-02 11:25:00
1:55 PM,68.0,50.0,52,29.92,6.2,South,10.4,-,N/A,,Scattered Clouds,180,2013-07-02 11:55:00
2:00 PM,69,51,43,29.94,11,South,11.2,,,,Partly Cloudy,190,2013-07-02 12:00:00
2:25 PM,68.0,50.0,52,29.92,6.2,South,11.5,-,N/A,,Mostly Cloudy,190,2013-07-02 12:25:00
2:55 PM,68.0,51.8,56,29.92,6.2,South,11.5,-,N/A,,Unknown,190,2013-07-02 12:55:00
3:25 PM,68.0,53.6,60,29.89,6.2,South,9.2,-,N/A,,Unknown,170,2013-07-02 13:25:00
3:55 PM,68.0,53.6,60,29.89,6.2,South,8.1,-,N/A,,Partly Cloudy,180,2013-07-02 13:55:00
4:25 PM,68.0,55.4,64,29.89,6.2,SSW,12.7,-,N/A,,Unknown,210,2013-07-02 14:25:00
4:55 PM,68.0,53.6,60,29.89,6.2,South,10.4,-,N/A,,Unknown,190,2013-07-02 14:55:00
5:00 PM,68,53,50,29.90,9,SSW,8.9,,,,Scattered Clouds,210,2013-07-02 15:00:00
5:25 PM,68.0,53.6,60,29.89,6.2,SSW,11.5,-,N/A,,Unknown,200,2013-07-02 15:25:00
5:55 PM,68.0,53.6,60,29.86,6.2,South,8.1,-,N/A,,Unknown,180,2013-07-02 15:55:00
6:25 PM,68.0,53.6,60,29.86,6.2,South,6.9,-,N/A,,Unknown,180,2013-07-02 16:25:00
6:55 PM,68.0,53.6,60,29.83,6.2,South,8.1,-,N/A,,Unknown,190,2013-07-02 16:55:00
7:25 PM,68.0,51.8,56,29.83,6.2,South,8.1,-,N/A,,Unknown,170,2013-07-02 17:25:00
7:55 PM,68.0,50.0,52,29.83,6.2,South,8.1,-,N/A,,Unknown,170,2013-07-02 17:55:00
8:00 PM,68,50,43,29.83,14,South,8.9,,,,Partly Cloudy,170,2013-07-02 18:00:00
8:25 PM,68.0,50.0,52,29.80,6.2,SSE,6.9,-,N/A,,Unknown,160,2013-07-02 18:25:00
8:55 PM,68.0,50.0,52,29.80,6.2,SSE,5.8,-,N/A,,Unknown,150,2013-07-02 18:55:00
9:25 PM,66.2,51.8,60,29.80,6.2,SSE,5.8,-,N/A,,Unknown,160,2013-07-02 19:25:00
9:55 PM,66.2,51.8,60,29.80,6.2,SSE,4.6,-,N/A,,Partly Cloudy,150,2013-07-02 19:55:00
10:25 PM,66.2,53.6,64,29.77,6.2,SE,4.6,-,N/A,Rain,Light Rain,140,2013-07-02 20:25:00
10:55 PM,64.4,57.2,77,29.77,6.2,SE,5.8,-,N/A,,Drizzle,140,2013-07-02 20:55:00
11:00 PM,64,57,70,29.80,12,SSE,4.5,,,Rain,Heavy Rain,160,2013-07-02 21:00:00
11:25 PM,62.6,57.2,82,29.80,6.2,South,9.2,-,N/A,Rain,Light Rain Showers,180,2013-07-02 21:25:00
11:55 PM,60.8,59.0,94,29.77,6.2,SE,8.1,-,N/A,,Scattered Clouds,130,2013-07-02 21:55:00